Location: G�ppingen
(48.7089°N, 9.6563°E)
Time: 03:21:51
(UTC+02:00)

OTV 5 (USA 277) - Visible Passes

Search period start: 27 May 2018 00:00
Search period end: 06 June 2018 00:00
Orbit: 308 x 326 km, 54.5° (Epoch: 06 May)

Date Brightness Start Highest point End Pass type
(mag) Time Alt. Az. Time Alt. Az. Time Alt. Az.
01 Jun ? 04:02:04 10° S 04:03:43 15° SE 04:05:26 10° E visible
02 Jun ? 04:15:49 13° SSW 04:17:56 33° SE 04:20:28 10° ENE visible
03 Jun ? 04:29:32 10° SW 04:32:15 77° SE 04:35:01 10° ENE visible
04 Jun ? 03:12:19 22° SE 03:12:33 22° SE 03:14:47 10° E visible
05 Jun ? 03:25:55 32° SSW 03:26:49 49° SE 03:29:31 10° ENE visible
